Location: Unspecified
(33.6682°S, 0.0000°E)
Time: 06:37:15
(UTC+00:00)

Tiros 1 despin weight - Pass Details

Date: 20 June 2019
Orbit: 594 x 642 km, 48.2° (Epoch: 17 July)

Event Time Altitude Azimuth Distance (km) Brightness Sun altitude
Rises 16:24:17 0° 226° (SW) 2,972 ? 5.4°
Reaches altitude 10° 16:27:04 10° 211° (SSW) 2,059 ? 4.9°
Maximum altitude 16:30:51 23° 158° (SSE) 1,381 ? 4.2°
Drops below altitude 10° 16:34:36 10° 105° (ESE) 2,040 ? 3.6°
Sets 16:37:20 0° 91° (E) 2,939 ? 3.1°
